Time,TemperatureF,DewpointF,PressureIn,WindDirection,WindDirectionDegrees,WindSpeedMPH,WindSpeedGustMPH,Humidity,HourlyPrecipIn,Conditions,Clouds,dailyrainin,SoftwareType,DateUTC
2013-07-01 00:01:00,65.3,60.1,29.89,North,1,0.0,-999.0,74,0.00,,,0.00,Custom/Perl,2013-07-01 05:01:00,
2013-07-01 00:06:00,65.3,60.1,29.89,North,6,0.0,-999.0,74,0.00,,,0.00,Custom/Perl,2013-07-01 05:06:00,
2013-07-01 00:12:00,65.2,60.0,29.89,North,1,1.0,-999.0,74,0.00,,,0.00,Custom/Perl,2013-07-01 05:12:00,
2013-07-01 00:17:00,65.2,60.0,29.89,NNE,22,0.0,-999.0,74,0.00,,,0.00,Custom/Perl,2013-07-01 05:17:00,
2013-07-01 00:22:00,65.2,60.2,29.89,North,1,0.0,-999.0,75,0.00,,,0.00,Custom/Perl,2013-07-01 05:22:00,
2013-07-01 00:27:00,65.1,60.1,29.90,North,2,0.0,-999.0,75,0.00,,,0.00,Custom/Perl,2013-07-01 05:27:00,
2013-07-01 00:32:00,64.9,59.9,29.89,NNE,30,0.0,-999.0,75,0.00,,,0.00,Custom/Perl,2013-07-01 05:32:00,
2013-07-01 00:38:00,64.8,59.8,29.89,NNE,18,0.0,-999.0,75,0.00,,,0.00,Custom/Perl,2013-07-01 05:38:00,
2013-07-01 00:43:00,64.6,59.8,29.89,NNE,27,0.0,-999.0,76,0.00,,,0.00,Custom/Perl,2013-07-01 05:43:00,
2013-07-01 00:48:00,64.2,59.4,29.90,NNE,27,0.0,-999.0,76,0.00,,,0.00,Custom/Perl,2013-07-01 05:48:00,
2013-07-01 00:53:00,63.6,59.0,29.90,NNE,27,0.0,-999.0,77,0.00,,,0.00,Custom/Perl,2013-07-01 05:53:00,
2013-07-01 00:58:00,63.2,58.8,29.89,NNE,27,0.0,-999.0,78,0.00,,,0.00,Custom/Perl,2013-07-01 05:58:00,
2013-07-01 01:04:00,62.9,58.7,29.89,NNE,23,0.0,-999.0,79,0.00,,,0.00,Custom/Perl,2013-07-01 06:04:00,
2013-07-01 01:09:00,62.8,58.8,29.90,North,359,0.0,-999.0,80,0.00,,,0.00,Custom/Perl,2013-07-01 06:09:00,
2013-07-01 01:14:00,62.7,58.7,29.90,NE,38,0.0,-999.0,80,0.00,,,0.00,Custom/Perl,2013-07-01 06:14:00,
2013-07-01 01:19:00,62.7,58.7,29.90,NNE,30,0.0,-999.0,80,0.00,,,0.00,Custom/Perl,2013-07-01 06:19:00,
2013-07-01 01:25:00,62.4,58.4,29.90,NNE,24,0.0,-999.0,80,0.00,,,0.00,Custom/Perl,2013-07-01 06:25:00,
2013-07-01 01:30:00,62.2,58.4,29.90,NNE,23,0.0,-999.0,81,0.00,,,0.00,Custom/Perl,2013-07-01 06:30:00,
2013-07-01 01:35:00,62.0,58.2,29.90,NNE,23,0.0,-999.0,81,0.00,,,0.00,Custom/Perl,2013-07-01 06:35:00,
2013-07-01 01:40:00,61.7,58.1,29.90,NNE,22,0.0,-999.0,82,0.00,,,0.00,Custom/Perl,2013-07-01 06:40:00,
2013-07-01 01:45:00,61.6,58.0,29.90,NNE,23,0.0,-999.0,82,0.00,,,0.00,Custom/Perl,2013-07-01 06:45:00,
2013-07-01 01:51:00,61.6,58.0,29.90,NNE,14,0.0,-999.0,82,0.00,,,0.00,Custom/Perl,2013-07-01 06:51:00,
2013-07-01 01:56:00,61.8,58.0,29.90,North,9,0.0,-999.0,81,0.00,,,0.00,Custom/Perl,2013-07-01 06:56:00,
2013-07-01 02:01:00,61.8,58.0,29.90,North,9,0.0,-999.0,81,0.00,,,0.00,Custom/Perl,2013-07-01 07:01:00,
2013-07-01 02:06:00,61.6,57.8,29.90,North,9,0.0,-999.0,81,0.00,,,0.00,Custom/Perl,2013-07-01 07:06:00,
2013-07-01 02:12:00,61.1,57.5,29.90,North,9,0.0,-999.0,82,0.00,,,0.00,Custom/Perl,2013-07-01 07:12:00,
2013-07-01 02:17:00,60.5,57.1,29.90,North,9,0.0,-999.0,83,0.00,,,0.00,Custom/Perl,2013-07-01 07:17:00,
2013-07-01 02:22:00,60.2,56.8,29.90,North,9,0.0,-999.0,83,0.00,,,0.00,Custom/Perl,2013-07-01 07:22:00,
2013-07-01 02:27:00,60.0,56.6,29.90,North,11,0.0,-999.0,83,0.00,,,0.00,Custom/Perl,2013-07-01 07:27:00,
2013-07-01 02:32:00,60.2,56.8,29.90,North,11,0.0,-999.0,83,0.00,,,0.00,Custom/Perl,2013-07-01 07:32:00,
2013-07-01 02:38:00,60.4,57.0,29.90,North,4,0.0,-999.0,83,0.00,,,0.00,Custom/Perl,2013-07-01 07:38:00,
2013-07-01 02:43:00,60.5,56.9,29.90,North,6,0.0,-999.0,82,0.00,,,0.00,Custom/Perl,2013-07-01 07:43:00,
2013-07-01 02:48:00,60.5,56.9,29.90,North,8,0.0,-999.0,82,0.00,,,0.00,Custom/Perl,2013-07-01 07:48:00,
2013-07-01 02:53:00,60.4,56.8,29.90,NNE,14,0.0,-999.0,82,0.00,,,0.00,Custom/Perl,2013-07-01 07:53:00,
2013-07-01 02:59:00,60.6,57.0,29.90,North,10,0.0,-999.0,82,0.00,,,0.00,Custom/Perl,2013-07-01 07:59:00,
2013-07-01 03:04:00,60.3,56.7,29.90,North,10,0.0,-999.0,82,0.00,,,0.00,Custom/Perl,2013-07-01 08:04:00,
2013-07-01 03:09:00,59.9,56.5,29.90,North,10,0.0,-999.0,83,0.00,,,0.00,Custom/Perl,2013-07-01 08:09:00,
2013-07-01 03:14:00,59.7,56.5,29.90,NNW,337,0.0,-999.0,84,0.00,,,0.00,Custom/Perl,2013-07-01 08:14:00,
2013-07-01 03:19:00,59.7,56.5,29.90,NNE,21,0.0,-999.0,84,0.00,,,0.00,Custom/Perl,2013-07-01 08:19:00,
2013-07-01 03:25:00,59.8,56.6,29.90,North,354,0.0,-999.0,84,0.00,,,0.00,Custom/Perl,2013-07-01 08:25:00,
2013-07-01 03:30:00,59.9,56.5,29.90,NE,34,0.0,-999.0,83,0.00,,,0.00,Custom/Perl,2013-07-01 08:30:00,
2013-07-01 03:35:00,60.1,56.7,29.91,NE,39,0.0,-999.0,83,0.00,,,0.00,Custom/Perl,2013-07-01 08:35:00,
2013-07-01 03:40:00,60.1,56.5,29.91,NE,36,0.0,-999.0,82,0.00,,,0.00,Custom/Perl,2013-07-01 08:40:00,
2013-07-01 03:46:00,60.0,56.4,29.91,NNW,328,0.0,-999.0,82,0.00,,,0.00,Custom/Perl,2013-07-01 08:46:00,
2013-07-01 03:51:00,59.9,56.5,29.91,NNE,12,0.0,-999.0,83,0.00,,,0.00,Custom/Perl,2013-07-01 08:51:00,
2013-07-01 03:56:00,59.9,56.3,29.91,North,6,0.0,-999.0,82,0.00,,,0.00,Custom/Perl,2013-07-01 08:56:00,
2013-07-01 04:01:00,59.7,56.3,29.91,NNW,328,1.0,-999.0,83,0.00,,,0.00,Custom/Perl,2013-07-01 09:01:00,
2013-07-01 04:06:00,59.6,56.2,29.91,NNW,347,0.0,-999.0,83,0.00,,,0.00,Custom/Perl,2013-07-01 09:06:00,
2013-07-01 04:12:00,59.5,56.1,29.91,WNW,300,0.0,-999.0,83,0.00,,,0.00,Custom/Perl,2013-07-01 09:12:00,
2013-07-01 04:17:00,59.3,55.9,29.91,North,2,0.0,-999.0,83,0.00,,,0.00,Custom/Perl,2013-07-01 09:17:00,
2013-07-01 04:22:00,59.3,55.9,29.91,NE,42,0.0,-999.0,83,0.00,,,0.00,Custom/Perl,2013-07-01 09:22:00,
2013-07-01 04:27:00,59.1,55.9,29.91,North,355,0.0,-999.0,84,0.00,,,0.00,Custom/Perl,2013-07-01 09:27:00,
2013-07-01 04:32:00,58.9,55.7,29.91,NNW,329,0.0,-999.0,84,0.00,,,0.00,Custom/Perl,2013-07-01 09:32:00,
2013-07-01 04:38:00,58.7,55.7,29.91,NW,305,0.0,-999.0,85,0.00,,,0.00,Custom/Perl,2013-07-01 09:38:00,
2013-07-01 04:43:00,58.5,55.5,29.91,North,358,0.0,-999.0,85,0.00,,,0.00,Custom/Perl,2013-07-01 09:43:00,
2013-07-01 04:48:00,58.2,55.2,29.92,North,353,0.0,-999.0,85,0.00,,,0.00,Custom/Perl,2013-07-01 09:48:00,
2013-07-01 04:53:00,58.1,55.3,29.92,North,350,0.0,-999.0,86,0.00,,,0.00,Custom/Perl,2013-07-01 09:53:00,
2013-07-01 04:59:00,58.1,55.3,29.92,NNW,328,0.0,-999.0,86,0.00,,,0.00,Custom/Perl,2013-07-01 09:59:00,
2013-07-01 05:04:00,57.9,55.1,29.92,NNW,333,0.0,-999.0,86,0.00,,,0.00,Custom/Perl,2013-07-01 10:04:00,
2013-07-01 05:09:00,57.8,55.0,29.92,North,358,0.0,-999.0,86,0.00,,,0.00,Custom/Perl,2013-07-01 10:09:00,
2013-07-01 05:14:00,57.5,54.7,29.92,North,5,0.0,-999.0,86,0.00,,,0.00,Custom/Perl,2013-07-01 10:14:00,
2013-07-01 05:19:00,57.2,54.6,29.92,North,359,0.0,-999.0,87,0.00,,,0.00,Custom/Perl,2013-07-01 10:19:00,
2013-07-01 05:25:00,57.1,54.5,29.92,North,11,0.0,-999.0,87,0.00,,,0.00,Custom/Perl,2013-07-01 10:25:00,
2013-07-01 05:30:00,57.1,54.5,29.92,NNW,330,0.0,-999.0,87,0.00,,,0.00,Custom/Perl,2013-07-01 10:30:00,
2013-07-01 05:35:00,57.1,54.5,29.92,North,6,0.0,-999.0,87,0.00,,,0.00,Custom/Perl,2013-07-01 10:35:00,
2013-07-01 05:40:00,57.0,54.4,29.92,North,2,0.0,-999.0,87,0.00,,,0.00,Custom/Perl,2013-07-01 10:40:00,
2013-07-01 05:46:00,57.0,54.4,29.92,NW,306,0.0,-999.0,87,0.00,,,0.00,Custom/Perl,2013-07-01 10:46:00,
2013-07-01 05:51:00,57.0,54.2,29.92,NW,315,0.0,-999.0,86,0.00,,,0.00,Custom/Perl,2013-07-01 10:51:00,
2013-07-01 05:56:00,57.0,54.2,29.93,NW,326,0.0,-999.0,86,0.00,,,0.00,Custom/Perl,2013-07-01 10:56:00,
2013-07-01 06:01:00,57.0,54.2,29.93,NW,313,0.0,-999.0,86,0.00,,,0.00,Custom/Perl,2013-07-01 11:01:00,
2013-07-01 06:06:00,56.9,54.1,29.93,NNW,338,0.0,-999.0,86,0.00,,,0.00,Custom/Perl,2013-07-01 11:06:00,
2013-07-01 06:12:00,56.8,54.0,29.93,NW,321,1.0,-999.0,86,0.00,,,0.00,Custom/Perl,2013-07-01 11:12:00,
2013-07-01 06:17:00,56.8,54.0,29.93,NNE,23,1.0,-999.0,86,0.00,,,0.00,Custom/Perl,2013-07-01 11:17:00,
2013-07-01 06:22:00,56.9,54.1,29.93,NW,325,0.0,-999.0,86,0.00,,,0.00,Custom/Perl,2013-07-01 11:22:00,
2013-07-01 06:27:00,57.1,54.3,29.94,NW,324,1.0,-999.0,86,0.00,,,0.00,Custom/Perl,2013-07-01 11:27:00,
2013-07-01 06:32:00,57.2,54.4,29.94,NW,309,0.0,-999.0,86,0.00,,,0.00,Custom/Perl,2013-07-01 11:32:00,
2013-07-01 06:38:00,57.4,54.4,29.94,NNW,330,2.0,-999.0,85,0.00,,,0.00,Custom/Perl,2013-07-01 11:38:00,
2013-07-01 06:43:00,57.6,54.6,29.94,NNE,18,0.0,-999.0,85,0.00,,,0.00,Custom/Perl,2013-07-01 11:43:00,
2013-07-01 06:48:00,57.8,54.8,29.94,NW,321,1.0,-999.0,85,0.00,,,0.00,Custom/Perl,2013-07-01 11:48:00,
2013-07-01 06:53:00,57.9,54.7,29.94,NW,316,1.0,-999.0,84,0.00,,,0.00,Custom/Perl,2013-07-01 11:53:00,
2013-07-01 06:59:00,58.0,54.8,29.94,North,9,1.0,-999.0,84,0.00,,,0.00,Custom/Perl,2013-07-01 11:59:00,
2013-07-01 07:04:00,58.2,55.0,29.94,NW,319,1.0,-999.0,84,0.00,,,0.00,Custom/Perl,2013-07-01 12:04:00,
2013-07-01 07:09:00,58.5,55.3,29.94,NW,316,1.0,-999.0,84,0.00,,,0.00,Custom/Perl,2013-07-01 12:09:00,
2013-07-01 07:14:00,58.7,55.5,29.95,North,4,1.0,-999.0,84,0.00,,,0.00,Custom/Perl,2013-07-01 12:14:00,
2013-07-01 07:19:00,58.8,55.4,29.94,NW,324,0.0,-999.0,83,0.00,,,0.00,Custom/Perl,2013-07-01 12:19:00,
2013-07-01 07:25:00,59.1,55.7,29.95,East,82,1.0,-999.0,83,0.00,,,0.00,Custom/Perl,2013-07-01 12:25:00,
2013-07-01 07:30:00,59.3,55.7,29.95,NW,316,0.0,-999.0,82,0.00,,,0.00,Custom/Perl,2013-07-01 12:30:00,
2013-07-01 07:35:00,59.6,56.0,29.95,ESE,123,0.0,-999.0,82,0.00,,,0.00,Custom/Perl,2013-07-01 12:35:00,
2013-07-01 07:40:00,59.8,56.2,29.95,NNW,339,2.0,-999.0,82,0.00,,,0.00,Custom/Perl,2013-07-01 12:40:00,
2013-07-01 07:46:00,60.0,56.4,29.95,WNW,295,1.0,-999.0,82,0.00,,,0.00,Custom/Perl,2013-07-01 12:46:00,
2013-07-01 07:51:00,60.4,56.8,29.95,ENE,68,1.0,-999.0,82,0.00,,,0.00,Custom/Perl,2013-07-01 12:51:00,
2013-07-01 07:56:00,60.8,57.0,29.95,NNW,329,1.0,-999.0,81,0.00,,,0.00,Custom/Perl,2013-07-01 12:56:00,
2013-07-01 08:01:00,61.2,57.2,29.96,North,350,0.0,-999.0,80,0.00,,,0.00,Custom/Perl,2013-07-01 13:01:00,
2013-07-01 08:06:00,61.6,57.6,29.96,WNW,298,3.0,-999.0,80,0.00,,,0.00,Custom/Perl,2013-07-01 13:06:00,
2013-07-01 08:12:00,62.2,57.8,29.96,NNW,342,3.0,-999.0,78,0.00,,,0.00,Custom/Perl,2013-07-01 13:12:00,
2013-07-01 08:17:00,62.7,58.3,29.96,WNW,302,2.0,-999.0,78,0.00,,,0.00,Custom/Perl,2013-07-01 13:17:00,
2013-07-01 08:22:00,63.1,58.3,29.96,NW,309,1.0,-999.0,76,0.00,,,0.00,Custom/Perl,2013-07-01 13:22:00,
2013-07-01 08:27:00,63.6,58.6,29.96,NNW,338,2.0,-999.0,75,0.00,,,0.00,Custom/Perl,2013-07-01 13:27:00,
2013-07-01 08:33:00,64.1,58.9,29.96,NW,317,1.0,-999.0,74,0.00,,,0.00,Custom/Perl,2013-07-01 13:33:00,
2013-07-01 08:38:00,64.5,59.1,29.96,WNW,302,3.0,-999.0,73,0.00,,,0.00,Custom/Perl,2013-07-01 13:38:00,
2013-07-01 08:43:00,65.0,59.6,29.96,NE,53,4.0,-999.0,73,0.00,,,0.00,Custom/Perl,2013-07-01 13:43:00,
2013-07-01 08:48:00,65.4,60.0,29.97,North,11,4.0,-999.0,73,0.00,,,0.00,Custom/Perl,2013-07-01 13:48:00,
2013-07-01 08:53:00,66.0,60.4,29.97,NNW,328,3.0,-999.0,72,0.00,,,0.00,Custom/Perl,2013-07-01 13:53:00,
2013-07-01 08:59:00,66.4,60.8,29.97,NW,324,2.0,-999.0,72,0.00,,,0.00,Custom/Perl,2013-07-01 13:59:00,
2013-07-01 09:04:00,66.8,61.0,29.97,North,4,3.0,-999.0,71,0.00,,,0.00,Custom/Perl,2013-07-01 14:04:00,
2013-07-01 09:09:00,67.3,61.3,29.97,ENE,60,0.0,-999.0,70,0.00,,,0.00,Custom/Perl,2013-07-01 14:09:00,
2013-07-01 09:14:00,67.8,61.6,29.97,NE,45,1.0,-999.0,69,0.00,,,0.00,Custom/Perl,2013-07-01 14:14:00,
2013-07-01 09:20:00,68.1,61.9,29.97,NW,311,2.0,-999.0,69,0.00,,,0.00,Custom/Perl,2013-07-01 14:20:00,
2013-07-01 09:25:00,68.4,62.2,29.97,North,349,1.0,-999.0,69,0.00,,,0.00,Custom/Perl,2013-07-01 14:25:00,
2013-07-01 09:30:00,68.8,62.6,29.97,NNW,330,1.0,-999.0,69,0.00,,,0.00,Custom/Perl,2013-07-01 14:30:00,
2013-07-01 09:35:00,69.6,63.2,29.97,NNE,18,1.0,-999.0,68,0.00,,,0.00,Custom/Perl,2013-07-01 14:35:00,
2013-07-01 09:40:00,70.2,63.0,29.97,NNW,333,2.0,-999.0,64,0.00,,,0.00,Custom/Perl,2013-07-01 14:40:00,
2013-07-01 09:46:00,70.4,63.6,29.97,East,88,1.0,-999.0,66,0.00,,,0.00,Custom/Perl,2013-07-01 14:46:00,
2013-07-01 09:51:00,70.7,63.7,29.97,WNW,289,0.0,-999.0,65,0.00,,,0.00,Custom/Perl,2013-07-01 14:51:00,
2013-07-01 09:56:00,70.9,63.9,29.97,North,349,0.0,-999.0,65,0.00,,,0.00,Custom/Perl,2013-07-01 14:56:00,
2013-07-01 10:01:00,71.3,64.1,29.97,NW,314,1.0,-999.0,64,0.00,,,0.00,Custom/Perl,2013-07-01 15:01:00,
2013-07-01 10:07:00,71.8,64.2,29.97,North,360,2.0,-999.0,62,0.00,,,0.00,Custom/Perl,2013-07-01 15:07:00,
2013-07-01 10:12:00,72.3,64.9,29.97,North,359,3.0,-999.0,63,0.00,,,0.00,Custom/Perl,2013-07-01 15:12:00,
2013-07-01 10:17:00,72.7,65.1,29.97,NW,304,1.0,-999.0,62,0.00,,,0.00,Custom/Perl,2013-07-01 15:17:00,
2013-07-01 10:22:00,73.0,65.2,29.97,NNE,18,1.0,-999.0,61,0.00,,,0.00,Custom/Perl,2013-07-01 15:22:00,
2013-07-01 10:28:00,73.2,65.6,29.97,NW,305,2.0,-999.0,62,0.00,,,0.00,Custom/Perl,2013-07-01 15:28:00,
2013-07-01 10:33:00,73.6,66.0,29.97,NW,311,1.0,-999.0,62,0.00,,,0.00,Custom/Perl,2013-07-01 15:33:00,
2013-07-01 10:38:00,74.1,65.5,29.97,NW,306,1.0,-999.0,57,0.00,,,0.00,Custom/Perl,2013-07-01 15:38:00,
2013-07-01 10:43:00,74.8,66.2,29.97,ENE,70,3.0,-999.0,57,0.00,,,0.00,Custom/Perl,2013-07-01 15:43:00,
2013-07-01 10:48:00,75.1,66.1,29.97,NNE,23,2.0,-999.0,55,0.00,,,0.00,Custom/Perl,2013-07-01 15:48:00,
2013-07-01 10:54:00,75.6,66.4,29.97,NNW,342,2.0,-999.0,54,0.00,,,0.00,Custom/Perl,2013-07-01 15:54:00,
2013-07-01 10:59:00,76.0,66.4,29.97,South,171,1.0,-999.0,52,0.00,,,0.00,Custom/Perl,2013-07-01 15:59:00,
2013-07-01 11:04:00,76.4,66.8,29.97,North,4,4.0,-999.0,52,0.00,,,0.00,Custom/Perl,2013-07-01 16:04:00,
2013-07-01 11:09:00,76.5,66.5,29.97,North,354,1.0,-999.0,50,0.00,,,0.00,Custom/Perl,2013-07-01 16:09:00,
2013-07-01 11:15:00,77.0,67.2,29.97,North,4,4.0,-999.0,51,0.00,,,0.00,Custom/Perl,2013-07-01 16:15:00,
2013-07-01 11:20:00,77.0,67.0,29.97,NW,311,3.0,-999.0,50,0.00,,,0.00,Custom/Perl,2013-07-01 16:20:00,
2013-07-01 11:25:00,77.1,66.7,29.97,NW,316,2.0,-999.0,48,0.00,,,0.00,Custom/Perl,2013-07-01 16:25:00,
2013-07-01 11:30:00,77.5,66.9,29.96,NE,42,2.0,-999.0,47,0.00,,,0.00,Custom/Perl,2013-07-01 16:30:00,
2013-07-01 11:36:00,77.9,66.5,29.96,NNE,16,5.0,-999.0,43,0.00,,,0.00,Custom/Perl,2013-07-01 16:36:00,
2013-07-01 11:41:00,78.3,66.1,29.96,North,349,3.0,-999.0,39,0.00,,,0.00,Custom/Perl,2013-07-01 16:41:00,
2013-07-01 11:46:00,78.8,66.6,29.96,WNW,298,1.0,-999.0,39,0.00,,,0.00,Custom/Perl,2013-07-01 16:46:00,
2013-07-01 11:51:00,79.5,67.3,29.96,NNE,28,4.0,-999.0,39,0.00,,,0.00,Custom/Perl,2013-07-01 16:51:00,
2013-07-01 11:57:00,79.7,67.3,29.96,ENE,57,7.0,-999.0,38,0.00,,,0.00,Custom/Perl,2013-07-01 16:57:00,
2013-07-01 12:02:00,79.7,67.5,29.96,East,96,5.0,-999.0,39,0.00,,,0.00,Custom/Perl,2013-07-01 17:02:00,
2013-07-01 12:07:00,79.7,67.1,29.96,WNW,283,1.0,-999.0,37,0.00,,,0.00,Custom/Perl,2013-07-01 17:07:00,
2013-07-01 12:12:00,80.0,67.4,29.96,NNE,31,5.0,-999.0,37,0.00,,,0.00,Custom/Perl,2013-07-01 17:12:00,
2013-07-01 12:18:00,80.1,67.3,29.96,WNW,302,1.0,-999.0,36,0.00,,,0.00,Custom/Perl,2013-07-01 17:18:00,
2013-07-01 12:23:00,80.1,67.7,29.96,WNW,294,6.0,-999.0,38,0.00,,,0.00,Custom/Perl,2013-07-01 17:23:00,
2013-07-01 12:28:00,79.8,67.0,29.96,NE,34,1.0,-999.0,36,0.00,,,0.00,Custom/Perl,2013-07-01 17:28:00,
2013-07-01 12:33:00,80.1,67.5,29.96,West,271,0.0,-999.0,37,0.00,,,0.00,Custom/Perl,2013-07-01 17:33:00,
2013-07-01 12:38:00,80.5,67.7,29.96,West,281,2.0,-999.0,36,0.00,,,0.00,Custom/Perl,2013-07-01 17:38:00,
2013-07-01 12:44:00,80.7,67.7,29.96,NW,325,3.0,-999.0,35,0.00,,,0.00,Custom/Perl,2013-07-01 17:44:00,
2013-07-01 12:49:00,81.1,68.1,29.96,NW,311,2.0,-999.0,35,0.00,,,0.00,Custom/Perl,2013-07-01 17:49:00,
2013-07-01 12:54:00,81.3,68.1,29.96,WNW,285,1.0,-999.0,34,0.00,,,0.00,Custom/Perl,2013-07-01 17:54:00,
2013-07-01 12:59:00,81.4,68.0,29.96,WNW,293,0.0,-999.0,33,0.00,,,0.00,Custom/Perl,2013-07-01 17:59:00,
2013-07-01 13:05:00,81.2,68.0,29.96,NNE,15,4.0,-999.0,34,0.00,,,0.00,Custom/Perl,2013-07-01 18:05:00,
2013-07-01 13:10:00,81.0,68.2,29.95,North,353,2.0,-999.0,36,0.00,,,0.00,Custom/Perl,2013-07-01 18:10:00,
2013-07-01 13:15:00,81.3,68.5,29.95,NNE,18,2.0,-999.0,36,0.00,,,0.00,Custom/Perl,2013-07-01 18:15:00,
2013-07-01 13:20:00,81.6,68.6,29.95,NNE,15,2.0,-999.0,35,0.00,,,0.00,Custom/Perl,2013-07-01 18:20:00,
2013-07-01 13:26:00,81.5,68.5,29.95,NE,51,3.0,-999.0,35,0.00,,,0.00,Custom/Perl,2013-07-01 18:26:00,
2013-07-01 13:31:00,81.1,68.7,29.95,NNW,337,4.0,-999.0,38,0.00,,,0.00,Custom/Perl,2013-07-01 18:31:00,
2013-07-01 13:36:00,81.6,68.6,29.95,WNW,292,3.0,-999.0,35,0.00,,,0.00,Custom/Perl,2013-07-01 18:36:00,
2013-07-01 13:41:00,81.1,68.1,29.95,NNE,25,2.0,-999.0,35,0.00,,,0.00,Custom/Perl,2013-07-01 18:41:00,
2013-07-01 13:46:00,81.5,68.7,29.94,NNW,332,7.0,-999.0,36,0.00,,,0.00,Custom/Perl,2013-07-01 18:46:00,
2013-07-01 13:52:00,81.9,69.1,29.94,NW,319,3.0,-999.0,36,0.00,,,0.00,Custom/Perl,2013-07-01 18:52:00,
2013-07-01 13:57:00,82.5,69.5,29.94,WNW,296,2.0,-999.0,35,0.00,,,0.00,Custom/Perl,2013-07-01 18:57:00,
2013-07-01 14:02:00,82.7,69.5,29.94,NNW,339,3.0,-999.0,34,0.00,,,0.00,Custom/Perl,2013-07-01 19:02:00,
2013-07-01 14:07:00,82.9,69.7,29.94,NW,326,2.0,-999.0,34,0.00,,,0.00,Custom/Perl,2013-07-01 19:07:00,
2013-07-01 14:13:00,83.0,70.0,29.94,WNW,288,6.0,-999.0,35,0.00,,,0.00,Custom/Perl,2013-07-01 19:13:00,
2013-07-01 14:18:00,82.0,69.2,29.94,East,86,2.0,-999.0,36,0.00,,,0.00,Custom/Perl,2013-07-01 19:18:00,
2013-07-01 14:23:00,82.0,69.4,29.94,NW,320,4.0,-999.0,37,0.00,,,0.00,Custom/Perl,2013-07-01 19:23:00,
2013-07-01 14:28:00,82.2,69.6,29.94,SSE,152,4.0,-999.0,37,0.00,,,0.00,Custom/Perl,2013-07-01 19:28:00,
2013-07-01 14:34:00,81.8,69.0,29.94,North,4,2.0,-999.0,36,0.00,,,0.00,Custom/Perl,2013-07-01 19:34:00,
2013-07-01 14:39:00,82.4,69.4,29.94,NE,44,3.0,-999.0,35,0.00,,,0.00,Custom/Perl,2013-07-01 19:39:00,
2013-07-01 14:44:00,82.4,69.6,29.93,NNW,330,4.0,-999.0,36,0.00,,,0.00,Custom/Perl,2013-07-01 19:44:00,
2013-07-01 14:49:00,82.1,69.7,29.93,North,1,2.0,-999.0,38,0.00,,,0.00,Custom/Perl,2013-07-01 19:49:00,
2013-07-01 14:54:00,82.8,69.6,29.93,North,358,4.0,-999.0,34,0.00,,,0.00,Custom/Perl,2013-07-01 19:54:00,
2013-07-01 15:00:00,83.2,69.8,29.93,West,278,1.0,-999.0,33,0.00,,,0.00,Custom/Perl,2013-07-01 20:00:00,
2013-07-01 15:05:00,84.1,70.9,29.93,NNE,32,3.0,-999.0,34,0.00,,,0.00,Custom/Perl,2013-07-01 20:05:00,
2013-07-01 15:10:00,84.3,71.5,29.93,NNW,333,4.0,-999.0,36,0.00,,,0.00,Custom/Perl,2013-07-01 20:10:00,
2013-07-01 15:15:00,84.1,71.1,29.93,North,1,2.0,-999.0,35,0.00,,,0.00,Custom/Perl,2013-07-01 20:15:00,
2013-07-01 15:21:00,83.6,70.6,29.93,NNW,336,8.0,-999.0,35,0.00,,,0.00,Custom/Perl,2013-07-01 20:21:00,
2013-07-01 15:26:00,83.8,70.0,29.93,NW,321,4.0,-999.0,31,0.00,,,0.00,Custom/Perl,2013-07-01 20:26:00,
2013-07-01 15:31:00,83.6,70.0,29.93,NE,42,6.0,-999.0,32,0.00,,,0.00,Custom/Perl,2013-07-01 20:31:00,
2013-07-01 15:36:00,84.2,70.4,29.93,NNW,345,3.0,-999.0,31,0.00,,,0.00,Custom/Perl,2013-07-01 20:36:00,
2013-07-01 15:42:00,84.7,70.9,29.93,SW,214,1.0,-999.0,31,0.00,,,0.00,Custom/Perl,2013-07-01 20:42:00,
2013-07-01 15:47:00,83.9,70.1,29.93,WNW,289,2.0,-999.0,31,0.00,,,0.00,Custom/Perl,2013-07-01 20:47:00,
2013-07-01 15:52:00,84.3,70.7,29.92,SW,219,3.0,-999.0,32,0.00,,,0.00,Custom/Perl,2013-07-01 20:52:00,
2013-07-01 15:57:00,84.7,70.9,29.92,NNE,18,3.0,-999.0,31,0.00,,,0.00,Custom/Perl,2013-07-01 20:57:00,
2013-07-01 16:03:00,84.5,70.9,29.92,NW,318,3.0,-999.0,32,0.00,,,0.00,Custom/Perl,2013-07-01 21:03:00,
2013-07-01 16:08:00,84.4,71.2,29.92,ESE,122,7.0,-999.0,34,0.00,,,0.00,Custom/Perl,2013-07-01 21:08:00,
2013-07-01 16:13:00,84.8,71.4,29.92,NE,51,2.0,-999.0,33,0.00,,,0.00,Custom/Perl,2013-07-01 21:13:00,
2013-07-01 16:18:00,84.0,70.4,29.92,WSW,250,3.0,-999.0,32,0.00,,,0.00,Custom/Perl,2013-07-01 21:18:00,
2013-07-01 16:24:00,83.8,70.0,29.92,NNE,32,5.0,-999.0,31,0.00,,,0.00,Custom/Perl,2013-07-01 21:24:00,
2013-07-01 16:29:00,84.0,70.0,29.91,NE,49,2.0,-999.0,30,0.00,,,0.00,Custom/Perl,2013-07-01 21:29:00,
2013-07-01 16:34:00,84.3,70.7,29.91,North,356,2.0,-999.0,32,0.00,,,0.00,Custom/Perl,2013-07-01 21:34:00,
2013-07-01 16:39:00,84.1,70.7,29.91,WNW,301,6.0,-999.0,33,0.00,,,0.00,Custom/Perl,2013-07-01 21:39:00,
2013-07-01 16:44:00,84.0,70.4,29.91,NNW,341,1.0,-999.0,32,0.00,,,0.00,Custom/Perl,2013-07-01 21:44:00,
2013-07-01 16:50:00,84.1,70.3,29.91,NNW,346,3.0,-999.0,31,0.00,,,0.00,Custom/Perl,2013-07-01 21:50:00,
2013-07-01 16:55:00,84.4,71.0,29.91,NNE,24,3.0,-999.0,33,0.00,,,0.00,Custom/Perl,2013-07-01 21:55:00,
2013-07-01 17:00:00,84.2,70.8,29.91,North,354,5.0,-999.0,33,0.00,,,0.00,Custom/Perl,2013-07-01 22:00:00,
2013-07-01 17:05:00,83.8,70.8,29.91,NE,41,3.0,-999.0,35,0.00,,,0.00,Custom/Perl,2013-07-01 22:05:00,
2013-07-01 17:11:00,83.8,70.6,29.91,WNW,295,2.0,-999.0,34,0.00,,,0.00,Custom/Perl,2013-07-01 22:11:00,
2013-07-01 17:16:00,83.2,70.0,29.91,ENE,57,3.0,-999.0,34,0.00,,,0.00,Custom/Perl,2013-07-01 22:16:00,
2013-07-01 17:21:00,83.6,70.0,29.91,WSW,249,3.0,-999.0,32,0.00,,,0.00,Custom/Perl,2013-07-01 22:21:00,
2013-07-01 17:26:00,84.4,71.0,29.91,North,5,3.0,-999.0,33,0.00,,,0.00,Custom/Perl,2013-07-01 22:26:00,
2013-07-01 17:31:00,84.8,71.4,29.91,NNW,340,4.0,-999.0,33,0.00,,,0.00,Custom/Perl,2013-07-01 22:31:00,
2013-07-01 17:37:00,84.9,71.5,29.91,North,8,4.0,-999.0,33,0.00,,,0.00,Custom/Perl,2013-07-01 22:37:00,
2013-07-01 17:42:00,84.8,71.4,29.90,North,1,2.0,-999.0,33,0.00,,,0.00,Custom/Perl,2013-07-01 22:42:00,
2013-07-01 17:47:00,85.0,71.6,29.90,SW,233,1.0,-999.0,33,0.00,,,0.00,Custom/Perl,2013-07-01 22:47:00,
2013-07-01 17:52:00,85.1,71.7,29.90,NW,321,1.0,-999.0,33,0.00,,,0.00,Custom/Perl,2013-07-01 22:52:00,
2013-07-01 17:58:00,85.4,72.0,29.90,WSW,249,4.0,-999.0,33,0.00,,,0.00,Custom/Perl,2013-07-01 22:58:00,
2013-07-01 18:03:00,85.2,71.6,29.90,North,5,5.0,-999.0,32,0.00,,,0.00,Custom/Perl,2013-07-01 23:03:00,
2013-07-01 18:08:00,84.8,71.2,29.90,WNW,300,5.0,-999.0,32,0.00,,,0.00,Custom/Perl,2013-07-01 23:08:00,
2013-07-01 18:13:00,84.6,71.2,29.90,North,359,2.0,-999.0,33,0.00,,,0.00,Custom/Perl,2013-07-01 23:13:00,
2013-07-01 18:19:00,84.5,71.3,29.90,NE,44,4.0,-999.0,34,0.00,,,0.00,Custom/Perl,2013-07-01 23:19:00,
2013-07-01 18:24:00,84.4,71.0,29.90,NE,47,8.0,-999.0,33,0.00,,,0.00,Custom/Perl,2013-07-01 23:24:00,
2013-07-01 18:29:00,84.4,71.2,29.90,SSW,211,4.0,-999.0,34,0.00,,,0.00,Custom/Perl,2013-07-01 23:29:00,
2013-07-01 18:34:00,84.1,70.7,29.90,NE,39,4.0,-999.0,33,0.00,,,0.00,Custom/Perl,2013-07-01 23:34:00,
2013-07-01 18:35:00,83.9,70.5,29.90,NNW,328,2.0,-999.0,33,0.00,,,0.00,Custom/Perl,2013-07-01 23:35:00,
2013-07-01 18:40:00,83.4,70.4,29.90,NE,43,2.0,-999.0,35,0.00,,,0.00,Custom/Perl,2013-07-01 23:40:00,
2013-07-01 18:45:00,83.3,70.5,29.90,ENE,58,4.0,-999.0,36,0.00,,,0.00,Custom/Perl,2013-07-01 23:45:00,
2013-07-01 18:51:00,83.2,70.0,29.90,NNW,333,2.0,-999.0,34,0.00,,,0.00,Custom/Perl,2013-07-01 23:51:00,
2013-07-01 18:56:00,83.3,70.3,29.90,North,5,3.0,-999.0,35,0.00,,,0.00,Custom/Perl,2013-07-01 23:56:00,
2013-07-01 19:01:00,83.4,70.4,29.90,North,352,2.0,-999.0,35,0.00,,,0.00,Custom/Perl,2013-07-02 00:01:00,
2013-07-01 19:06:00,83.7,70.9,29.90,North,3,1.0,-999.0,36,0.00,,,0.00,Custom/Perl,2013-07-02 00:06:00,
2013-07-01 19:11:00,82.4,69.8,29.90,WNW,294,3.0,-999.0,37,0.00,,,0.00,Custom/Perl,2013-07-02 00:11:00,
2013-07-01 19:17:00,81.6,69.4,29.90,NE,41,2.0,-999.0,39,0.00,,,0.00,Custom/Perl,2013-07-02 00:17:00,
2013-07-01 19:22:00,81.3,68.7,29.90,ENE,63,4.0,-999.0,37,0.00,,,0.00,Custom/Perl,2013-07-02 00:22:00,
2013-07-01 19:27:00,81.3,69.1,29.90,NW,306,2.0,-999.0,39,0.00,,,0.00,Custom/Perl,2013-07-02 00:27:00,
2013-07-01 19:32:00,81.2,68.8,29.90,North,349,1.0,-999.0,38,0.00,,,0.00,Custom/Perl,2013-07-02 00:32:00,
2013-07-01 19:37:00,81.1,68.9,29.91,NNW,328,0.0,-999.0,39,0.00,,,0.00,Custom/Perl,2013-07-02 00:37:00,
2013-07-01 19:43:00,80.9,68.5,29.91,NNE,23,0.0,-999.0,38,0.00,,,0.00,Custom/Perl,2013-07-02 00:43:00,
2013-07-01 19:48:00,80.6,68.4,29.91,NNW,345,2.0,-999.0,39,0.00,,,0.00,Custom/Perl,2013-07-02 00:48:00,
2013-07-01 19:53:00,80.2,68.0,29.91,NNE,32,1.0,-999.0,39,0.00,,,0.00,Custom/Perl,2013-07-02 00:53:00,
2013-07-01 19:58:00,79.8,67.8,29.91,NNW,328,0.0,-999.0,40,0.00,,,0.00,Custom/Perl,2013-07-02 00:58:00,
2013-07-01 20:04:00,79.3,67.5,29.91,NW,312,0.0,-999.0,41,0.00,,,0.00,Custom/Perl,2013-07-02 01:04:00,
2013-07-01 20:09:00,79.2,67.6,29.91,NNE,13,0.0,-999.0,42,0.00,,,0.00,Custom/Perl,2013-07-02 01:09:00,
2013-07-01 20:14:00,79.0,67.4,29.91,North,11,0.0,-999.0,42,0.00,,,0.00,Custom/Perl,2013-07-02 01:14:00,
2013-07-01 20:19:00,78.6,67.2,29.91,NW,304,0.0,-999.0,43,0.00,,,0.00,Custom/Perl,2013-07-02 01:19:00,
2013-07-01 20:25:00,77.7,66.5,29.91,NW,305,0.0,-999.0,44,0.00,,,0.00,Custom/Perl,2013-07-02 01:25:00,
2013-07-01 20:30:00,77.0,66.2,29.91,NW,309,0.0,-999.0,46,0.00,,,0.00,Custom/Perl,2013-07-02 01:30:00,
2013-07-01 20:35:00,76.5,65.7,29.91,NW,313,0.0,-999.0,46,0.00,,,0.00,Custom/Perl,2013-07-02 01:35:00,
2013-07-01 20:40:00,75.9,65.3,29.91,NW,314,0.0,-999.0,47,0.00,,,0.00,Custom/Perl,2013-07-02 01:40:00,
2013-07-01 20:45:00,75.3,64.9,29.91,North,351,0.0,-999.0,48,0.00,,,0.00,Custom/Perl,2013-07-02 01:45:00,
2013-07-01 20:51:00,74.5,64.3,29.91,North,351,0.0,-999.0,49,0.00,,,0.00,Custom/Perl,2013-07-02 01:51:00,
2013-07-01 20:56:00,73.9,63.9,29.91,North,351,0.0,-999.0,50,0.00,,,0.00,Custom/Perl,2013-07-02 01:56:00,
2013-07-01 21:01:00,73.4,63.6,29.91,North,351,0.0,-999.0,51,0.00,,,0.00,Custom/Perl,2013-07-02 02:01:00,
2013-07-01 21:06:00,72.9,63.3,29.91,North,351,0.0,-999.0,52,0.00,,,0.00,Custom/Perl,2013-07-02 02:06:00,
2013-07-01 21:12:00,72.3,62.9,29.91,North,351,0.0,-999.0,53,0.00,,,0.00,Custom/Perl,2013-07-02 02:12:00,
2013-07-01 21:17:00,71.7,62.5,29.91,North,351,0.0,-999.0,54,0.00,,,0.00,Custom/Perl,2013-07-02 02:17:00,
2013-07-01 21:22:00,71.1,62.7,29.91,North,351,0.0,-999.0,58,0.00,,,0.00,Custom/Perl,2013-07-02 02:22:00,
2013-07-01 21:27:00,70.3,62.1,29.91,North,351,0.0,-999.0,59,0.00,,,0.00,Custom/Perl,2013-07-02 02:27:00,
2013-07-01 21:32:00,69.5,61.5,29.91,North,351,0.0,-999.0,60,0.00,,,0.00,Custom/Perl,2013-07-02 02:32:00,
2013-07-01 21:38:00,68.8,61.2,29.91,North,351,0.0,-999.0,62,0.00,,,0.00,Custom/Perl,2013-07-02 02:38:00,
2013-07-01 21:43:00,68.1,60.9,29.91,North,351,0.0,-999.0,64,0.00,,,0.00,Custom/Perl,2013-07-02 02:43:00,
2013-07-01 21:48:00,67.5,60.5,29.92,North,351,0.0,-999.0,65,0.00,,,0.00,Custom/Perl,2013-07-02 02:48:00,
2013-07-01 21:53:00,67.3,60.3,29.92,North,351,0.0,-999.0,65,0.00,,,0.00,Custom/Perl,2013-07-02 02:53:00,
2013-07-01 21:59:00,66.9,60.1,29.92,North,351,0.0,-999.0,66,0.00,,,0.00,Custom/Perl,2013-07-02 02:59:00,
2013-07-01 22:04:00,66.5,60.1,29.92,North,351,0.0,-999.0,68,0.00,,,0.00,Custom/Perl,2013-07-02 03:04:00,
2013-07-01 22:09:00,66.0,59.6,29.92,North,351,0.0,-999.0,68,0.00,,,0.00,Custom/Perl,2013-07-02 03:09:00,
2013-07-01 22:14:00,65.6,59.2,29.92,North,351,0.0,-999.0,68,0.00,,,0.00,Custom/Perl,2013-07-02 03:14:00,
2013-07-01 22:19:00,65.4,59.4,29.92,North,351,0.0,-999.0,70,0.00,,,0.00,Custom/Perl,2013-07-02 03:19:00,
2013-07-01 22:25:00,65.0,59.2,29.92,North,351,0.0,-999.0,71,0.00,,,0.00,Custom/Perl,2013-07-02 03:25:00,
2013-07-01 22:30:00,64.7,58.9,29.92,North,351,0.0,-999.0,71,0.00,,,0.00,Custom/Perl,2013-07-02 03:30:00,
2013-07-01 22:35:00,64.5,58.7,29.92,North,351,0.0,-999.0,71,0.00,,,0.00,Custom/Perl,2013-07-02 03:35:00,
2013-07-01 22:40:00,64.4,58.4,29.92,North,351,0.0,-999.0,70,0.00,,,0.00,Custom/Perl,2013-07-02 03:40:00,
2013-07-01 22:45:00,64.3,58.5,29.92,North,351,0.0,-999.0,71,0.00,,,0.00,Custom/Perl,2013-07-02 03:45:00,
2013-07-01 22:51:00,64.2,58.4,29.92,North,351,0.0,-999.0,71,0.00,,,0.00,Custom/Perl,2013-07-02 03:51:00,
2013-07-01 22:56:00,64.1,58.5,29.92,North,351,0.0,-999.0,72,0.00,,,0.00,Custom/Perl,2013-07-02 03:56:00,
2013-07-01 23:01:00,63.7,58.1,29.92,North,351,0.0,-999.0,72,0.00,,,0.00,Custom/Perl,2013-07-02 04:01:00,
2013-07-01 23:03:00,63.6,58.0,29.92,North,351,0.0,-999.0,72,0.00,,,0.00,Custom/Perl,2013-07-02 04:03:00,
2013-07-01 23:04:00,63.6,58.0,29.92,North,351,0.0,-999.0,72,0.00,,,0.00,Custom/Perl,2013-07-02 04:04:00,
2013-07-01 23:06:00,63.7,58.1,29.92,North,351,0.0,-999.0,72,0.00,,,0.00,Custom/Perl,2013-07-02 04:06:00,
2013-07-01 23:11:00,64.2,58.4,29.92,North,351,0.0,-999.0,71,0.00,,,0.00,Custom/Perl,2013-07-02 04:11:00,
2013-07-01 23:16:00,64.4,58.6,29.92,North,351,0.0,-999.0,71,0.00,,,0.00,Custom/Perl,2013-07-02 04:16:00,
2013-07-01 23:21:00,64.3,58.5,29.92,North,351,0.0,-999.0,71,0.00,,,0.00,Custom/Perl,2013-07-02 04:21:00,
2013-07-01 23:27:00,64.2,58.2,29.93,North,351,0.0,-999.0,70,0.00,,,0.00,Custom/Perl,2013-07-02 04:27:00,
2013-07-01 23:32:00,64.2,58.2,29.92,North,351,0.0,-999.0,70,0.00,,,0.00,Custom/Perl,2013-07-02 04:32:00,
2013-07-01 23:37:00,64.4,58.4,29.92,North,351,0.0,-999.0,70,0.00,,,0.00,Custom/Perl,2013-07-02 04:37:00,
2013-07-01 23:42:00,64.7,58.5,29.93,North,351,0.0,-999.0,69,0.00,,,0.00,Custom/Perl,2013-07-02 04:42:00,
2013-07-01 23:47:00,64.8,58.6,29.93,North,351,0.0,-999.0,69,0.00,,,0.00,Custom/Perl,2013-07-02 04:47:00,
2013-07-01 23:53:00,64.7,58.5,29.93,North,351,0.0,-999.0,69,0.00,,,0.00,Custom/Perl,2013-07-02 04:53:00,
2013-07-01 23:58:00,64.6,58.4,29.93,North,351,0.0,-999.0,69,0.00,,,0.00,Custom/Perl,2013-07-02 04:58:00,